EZY126 EHAM-EGKK

Flight info

Callsign EZY126
Flight time 0h 47m
Altitude 24000
Route IDRID L980 ABNED Z344 AMRIV Q63 ARREK Y4 TEBRA
Aircraft A20N/M-SDE2E3FGHIRWXY/LB1

Departure

Time 2026-05-06 18:07
Airport Amsterdam Airport Schiphol (EHAM)

Arrival

Time 2026-05-06 18:55
Airport London Gatwick Airport (EGKK)
Time Latitude Longitude Altitude Speed Heading
2026-05-06 17:08 52.31026 4.75459 -3 ft 0 kts 149°
2026-05-06 17:53 52.31029 4.75456 -3 ft 1 kts 149°
2026-05-06 17:54 52.31038 4.75448 -3 ft 2 kts 149°
2026-05-06 17:54 52.31048 4.75438 -3 ft 2 kts 149°
2026-05-06 17:54 52.31057 4.75429 -3 ft 1 kts 149°
2026-05-06 17:54 52.31065 4.75420 -3 ft 1 kts 120°
2026-05-06 17:55 52.31069 4.75404 -3 ft 2 kts 73°
2026-05-06 17:55 52.31068 4.75399 -3 ft 0 kts 62°
2026-05-06 17:58 52.31069 4.75401 -3 ft 1 kts 62°
2026-05-06 17:58 52.31079 4.75433 -3 ft 5 kts 62°
2026-05-06 17:58 52.31107 4.75487 -3 ft 8 kts 36°
2026-05-06 17:58 52.31164 4.75496 -3 ft 10 kts 357°
2026-05-06 17:59 52.31242 4.75486 -3 ft 13 kts 356°
2026-05-06 17:59 52.31280 4.75483 -3 ft 0 kts 357°
2026-05-06 17:59 52.31303 4.75481 -3 ft 4 kts 357°
2026-05-06 17:59 52.31308 4.75481 -3 ft 1 kts 357°
2026-05-06 18:00 52.31336 4.75479 -3 ft 7 kts 357°
2026-05-06 18:00 52.31399 4.75473 -3 ft 11 kts 356°
2026-05-06 18:00 52.31478 4.75464 -3 ft 11 kts 351°
2026-05-06 18:00 52.31506 4.75378 -3 ft 10 kts 272°
2026-05-06 18:01 52.31506 4.75244 -3 ft 14 kts 267°
2026-05-06 18:01 52.31499 4.75070 -3 ft 17 kts 266°
2026-05-06 18:01 52.31493 4.74885 -3 ft 17 kts 267°
2026-05-06 18:01 52.31487 4.74679 -3 ft 20 kts 268°
2026-05-06 18:02 52.31479 4.74480 -3 ft 18 kts 265°
2026-05-06 18:02 52.31474 4.74356 -3 ft 1 kts 261°
2026-05-06 18:02 52.31473 4.74309 -3 ft 8 kts 268°
2026-05-06 18:02 52.31453 4.74196 -3 ft 13 kts 233°
2026-05-06 18:03 52.31366 4.74133 -3 ft 16 kts 185°
2026-05-06 18:03 52.31251 4.74122 -3 ft 17 kts 185°
2026-05-06 18:03 52.31118 4.74110 -3 ft 21 kts 184°
2026-05-06 18:03 52.30963 4.74096 -3 ft 23 kts 183°
2026-05-06 18:04 52.30812 4.74084 -3 ft 18 kts 183°
2026-05-06 18:04 52.30711 4.74074 -3 ft 15 kts 183°
2026-05-06 18:04 52.30619 4.74051 -3 ft 14 kts 205°
2026-05-06 18:04 52.30601 4.73948 -2 ft 8 kts 280°
2026-05-06 18:05 52.30607 4.73936 -2 ft 0 kts 316°
2026-05-06 18:05 52.30610 4.73933 -2 ft 2 kts 320°
2026-05-06 18:06 52.30627 4.73914 -3 ft 6 kts 329°
2026-05-06 18:06 52.30691 4.73862 -3 ft 14 kts 333°
2026-05-06 18:06 52.30789 4.73801 -1 ft 16 kts 348°
2026-05-06 18:06 52.30847 4.73796 -1 ft 2 kts
2026-05-06 18:07 52.30972 4.73810 -1 ft 50 kts
2026-05-06 18:07 52.31557 4.73875 -4 ft 114 kts
2026-05-06 18:07 52.32489 4.73949 39 ft 156 kts
2026-05-06 18:07 52.33553 4.73985 944 ft 145 kts
2026-05-06 18:08 52.34545 4.74042 1819 ft 142 kts
2026-05-06 18:08 52.35583 4.74174 2246 ft 159 kts
2026-05-06 18:08 52.36758 4.74035 2665 ft 184 kts 348°
2026-05-06 18:08 52.37921 4.72859 3115 ft 214 kts 316°
2026-05-06 18:09 52.38613 4.70551 3647 ft 244 kts 283°
2026-05-06 18:09 52.38482 4.67748 4587 ft 254 kts 252°
2026-05-06 18:09 52.37643 4.65084 5357 ft 274 kts 238°
2026-05-06 18:09 52.36553 4.62421 5530 ft 284 kts 236°
2026-05-06 18:10 52.35484 4.59741 5639 ft 279 kts 239°
2026-05-06 18:10 52.34490 4.57014 5795 ft 281 kts 241°
2026-05-06 18:10 52.33537 4.54190 6446 ft 286 kts 243°
2026-05-06 18:10 52.32621 4.51350 7693 ft 279 kts 244°
2026-05-06 18:11 52.31735 4.48552 8835 ft 282 kts 244°
2026-05-06 18:11 52.30828 4.45689 9941 ft 285 kts 244°
2026-05-06 18:11 52.29895 4.42747 10679 ft 302 kts 244°
2026-05-06 18:11 52.28893 4.39587 11138 ft 324 kts 244°
2026-05-06 18:12 52.27828 4.36244 11794 ft 337 kts 244°
2026-05-06 18:12 52.26736 4.32828 12129 ft 339 kts 244°
2026-05-06 18:12 52.25639 4.29416 12268 ft 340 kts 244°
2026-05-06 18:12 52.24539 4.25998 12405 ft 340 kts 244°
2026-05-06 18:13 52.23438 4.22583 12532 ft 341 kts 244°
2026-05-06 18:13 52.22349 4.19204 12655 ft 341 kts 244°
2026-05-06 18:13 52.21247 4.15787 12778 ft 341 kts 244°
2026-05-06 18:13 52.20136 4.12345 12895 ft 341 kts 244°
2026-05-06 18:14 52.19033 4.08933 12928 ft 342 kts 244°
2026-05-06 18:14 52.17924 4.05505 12928 ft 342 kts 244°
2026-05-06 18:14 52.16816 4.02086 12928 ft 341 kts 244°
2026-05-06 18:14 52.15706 3.98667 12956 ft 343 kts 244°
2026-05-06 18:15 52.14585 3.95218 13457 ft 347 kts 244°
2026-05-06 18:15 52.13445 3.91724 14511 ft 344 kts 244°
2026-05-06 18:15 52.12333 3.88323 15408 ft 346 kts 242°
2026-05-06 18:15 52.11170 3.84864 16228 ft 350 kts 242°
2026-05-06 18:16 52.09995 3.81382 17125 ft 351 kts 242°
2026-05-06 18:16 52.08823 3.77867 17946 ft 355 kts 242°
2026-05-06 18:16 52.07652 3.74308 18659 ft 359 kts 242°
2026-05-06 18:16 52.06477 3.70713 19390 ft 362 kts 242°
2026-05-06 18:17 52.05293 3.67083 20060 ft 366 kts 242°
2026-05-06 18:17 52.04091 3.63404 20732 ft 370 kts 242°
2026-05-06 18:17 52.02880 3.59705 21432 ft 373 kts 242°
2026-05-06 18:17 52.01652 3.55969 22088 ft 377 kts 242°
2026-05-06 18:18 52.00410 3.52197 22747 ft 381 kts 242°
2026-05-06 18:18 51.99046 3.48479 23421 ft 386 kts 236°
2026-05-06 18:18 51.97465 3.44927 23650 ft 389 kts 234°
2026-05-06 18:18 51.95863 3.41392 23768 ft 389 kts 234°
2026-05-06 18:19 51.94262 3.37857 23863 ft 389 kts 234°
2026-05-06 18:19 51.92658 3.34313 23937 ft 390 kts 234°
2026-05-06 18:19 51.91054 3.30771 23939 ft 390 kts 234°
2026-05-06 18:19 51.89451 3.27236 23938 ft 390 kts 234°
2026-05-06 18:20 51.87848 3.23704 23937 ft 389 kts 234°
2026-05-06 18:20 51.86241 3.20167 23943 ft 390 kts 234°
2026-05-06 18:20 51.84716 3.16536 23942 ft 390 kts 240°
2026-05-06 18:20 51.83448 3.12666 23947 ft 390 kts 243°
2026-05-06 18:21 51.82227 3.08755 23939 ft 390 kts 243°
2026-05-06 18:21 51.81013 3.04888 23945 ft 391 kts 243°
2026-05-06 18:21 51.79789 3.01010 23945 ft 391 kts 243°
2026-05-06 18:21 51.78525 2.97016 23945 ft 391 kts 243°
2026-05-06 18:22 51.77299 2.93151 23946 ft 392 kts 243°
2026-05-06 18:22 51.76055 2.89237 23948 ft 392 kts 243°
2026-05-06 18:22 51.74811 2.85329 23951 ft 392 kts 243°
2026-05-06 18:22 51.73563 2.81416 23950 ft 393 kts 243°
2026-05-06 18:23 51.72311 2.77497 23950 ft 393 kts 243°
2026-05-06 18:23 51.71060 2.73585 23952 ft 393 kts 243°
2026-05-06 18:23 51.69856 2.69633 23954 ft 393 kts 247°
2026-05-06 18:23 51.68927 2.65435 23952 ft 393 kts 254°
2026-05-06 18:24 51.68336 2.61141 23953 ft 393 kts 261°
2026-05-06 18:24 51.67963 2.56837 23954 ft 393 kts 262°
2026-05-06 18:24 51.67579 2.52471 23957 ft 393 kts 262°
2026-05-06 18:24 51.67189 2.48117 23957 ft 393 kts 262°
2026-05-06 18:25 51.66787 2.43703 23957 ft 393 kts 261°
2026-05-06 18:25 51.66386 2.39336 23959 ft 393 kts 261°
2026-05-06 18:25 51.65985 2.34980 23959 ft 394 kts 261°
2026-05-06 18:25 51.65581 2.30614 23961 ft 394 kts 261°
2026-05-06 18:26 51.65180 2.26293 23961 ft 394 kts 261°
2026-05-06 18:26 51.64769 2.21886 23960 ft 394 kts 261°
2026-05-06 18:26 51.64367 2.17582 23962 ft 394 kts 261°
2026-05-06 18:26 51.63957 2.13215 23964 ft 394 kts 261°
2026-05-06 18:27 51.63546 2.08845 23959 ft 395 kts 261°
2026-05-06 18:27 51.63139 2.04478 23963 ft 395 kts 262°
2026-05-06 18:27 51.62734 2.00107 23836 ft 394 kts 262°
2026-05-06 18:27 51.62327 1.95730 23257 ft 397 kts 262°
2026-05-06 18:28 51.61918 1.91321 22276 ft 402 kts 262°
2026-05-06 18:28 51.61400 1.86894 21480 ft 401 kts 254°
2026-05-06 18:28 51.60353 1.82786 21024 ft 392 kts 242°
2026-05-06 18:28 51.58828 1.79198 20480 ft 387 kts 230°
2026-05-06 18:29 51.57060 1.75983 19923 ft 382 kts 230°
2026-05-06 18:29 51.55308 1.72810 19360 ft 377 kts 230°
2026-05-06 18:29 51.53588 1.69695 18810 ft 372 kts 230°
2026-05-06 18:29 51.51869 1.66582 18261 ft 368 kts 230°
2026-05-06 18:30 51.50215 1.63481 17679 ft 363 kts 234°
2026-05-06 18:30 51.48843 1.60124 17146 ft 357 kts 242°
2026-05-06 18:30 51.47803 1.56553 16621 ft 351 kts 250°
2026-05-06 18:30 51.46976 1.52890 16107 ft 347 kts 251°
2026-05-06 18:31 51.46155 1.49274 15593 ft 343 kts 251°
2026-05-06 18:31 51.45336 1.45705 15091 ft 340 kts 251°
2026-05-06 18:31 51.44520 1.42169 14595 ft 337 kts 250°
2026-05-06 18:31 51.43495 1.38812 14103 ft 335 kts 238°
2026-05-06 18:32 51.42018 1.35943 13739 ft 333 kts 225°
2026-05-06 18:32 51.40143 1.33561 13566 ft 353 kts 218°
2026-05-06 18:32 51.38172 1.31239 13338 ft 350 kts 218°
2026-05-06 18:32 51.36224 1.28937 13096 ft 347 kts 218°
2026-05-06 18:33 51.34285 1.26646 12861 ft 347 kts 218°
2026-05-06 18:33 51.32346 1.24354 12630 ft 346 kts 218°
2026-05-06 18:33 51.30414 1.22073 12402 ft 345 kts 218°
2026-05-06 18:33 51.28483 1.19796 12171 ft 344 kts 218°
2026-05-06 18:34 51.26562 1.17534 12011 ft 342 kts 218°
2026-05-06 18:34 51.24673 1.15313 11979 ft 343 kts 218°
2026-05-06 18:34 51.22747 1.13050 11978 ft 343 kts 218°
2026-05-06 18:34 51.20825 1.10793 11981 ft 344 kts 218°
2026-05-06 18:35 51.18900 1.08536 11978 ft 344 kts 218°
2026-05-06 18:35 51.16972 1.06278 11985 ft 344 kts 218°
2026-05-06 18:35 51.15043 1.04021 11984 ft 344 kts 218°
2026-05-06 18:35 51.13119 1.01772 11989 ft 344 kts 218°
2026-05-06 18:36 51.11190 0.99520 11989 ft 344 kts 218°
2026-05-06 18:36 51.09255 0.97263 11992 ft 344 kts 218°
2026-05-06 18:36 51.07336 0.94986 11993 ft 344 kts 221°
2026-05-06 18:36 51.05717 0.92234 11993 ft 341 kts 238°
2026-05-06 18:37 51.04778 0.88805 11995 ft 339 kts 256°
2026-05-06 18:37 51.04381 0.86403 11993 ft 339 kts 257°
2026-05-06 18:37 51.03605 0.81553 11992 ft 339 kts 257°
2026-05-06 18:37 51.03029 0.77927 11991 ft 339 kts 257°
2026-05-06 18:38 51.02449 0.74300 11989 ft 339 kts 257°
2026-05-06 18:38 51.01867 0.70685 11989 ft 339 kts 257°
2026-05-06 18:38 51.01279 0.67054 11986 ft 339 kts 257°
2026-05-06 18:38 51.00691 0.63434 11987 ft 339 kts 256°
2026-05-06 18:39 51.00101 0.59825 11925 ft 337 kts 257°
2026-05-06 18:39 50.99512 0.56213 11607 ft 336 kts 257°
2026-05-06 18:39 50.98934 0.52688 11480 ft 323 kts 257°
2026-05-06 18:40 50.97849 0.46104 11142 ft 300 kts 257°
2026-05-06 18:40 50.97310 0.42822 10387 ft 309 kts 257°
2026-05-06 18:40 50.96759 0.39470 9528 ft 320 kts 257°
2026-05-06 18:40 50.96189 0.36008 8621 ft 329 kts 256°
2026-05-06 18:41 50.95602 0.32458 7767 ft 336 kts 256°
2026-05-06 18:41 50.95080 0.28886 7329 ft 327 kts 265°
2026-05-06 18:41 50.95286 0.25404 7108 ft 312 kts 288°
2026-05-06 18:41 50.95921 0.22208 6991 ft 296 kts 284°
2026-05-06 18:42 50.96312 0.19108 6975 ft 278 kts 281°
2026-05-06 18:42 50.96643 0.16222 6974 ft 261 kts 281°
2026-05-06 18:42 50.96960 0.13437 6981 ft 245 kts 281°
2026-05-06 18:42 50.97252 0.10857 6984 ft 235 kts 281°
2026-05-06 18:43 50.97543 0.08300 6986 ft 239 kts 281°
2026-05-06 18:43 50.97836 0.05716 6818 ft 238 kts 281°
2026-05-06 18:43 50.98134 0.03109 6405 ft 244 kts 281°
2026-05-06 18:43 50.98446 0.00421 5848 ft 252 kts 281°
2026-05-06 18:44 50.98766 -0.02347 5267 ft 259 kts 281°
2026-05-06 18:44 50.99097 -0.05216 4622 ft 268 kts 281°
2026-05-06 18:44 50.99430 -0.08168 3918 ft 277 kts 281°
2026-05-06 18:44 50.99757 -0.11230 3313 ft 282 kts 281°
2026-05-06 18:45 51.00070 -0.14256 3084 ft 272 kts 281°
2026-05-06 18:45 51.00365 -0.17143 3003 ft 257 kts 281°
2026-05-06 18:45 51.00636 -0.19856 2994 ft 241 kts 281°
2026-05-06 18:45 51.00808 -0.21586 2998 ft 230 kts 281°
2026-05-06 18:46 51.01130 -0.24877 2994 ft 228 kts 281°
2026-05-06 18:46 51.01369 -0.27348 2998 ft 226 kts 281°
2026-05-06 18:46 51.01608 -0.29824 2997 ft 227 kts 281°
2026-05-06 18:46 51.01846 -0.32294 3000 ft 227 kts 281°
2026-05-06 18:47 51.02083 -0.34775 2996 ft 227 kts 281°
2026-05-06 18:47 51.02328 -0.37265 2999 ft 228 kts 281°
2026-05-06 18:47 51.02570 -0.39742 2993 ft 227 kts 281°
2026-05-06 18:47 51.02813 -0.42223 3000 ft 227 kts 281°
2026-05-06 18:48 51.03054 -0.44695 2995 ft 226 kts 281°
2026-05-06 18:48 51.03293 -0.47158 2996 ft 223 kts 281°
2026-05-06 18:48 51.03614 -0.49487 2991 ft 208 kts 298°
2026-05-06 18:48 51.04522 -0.51075 2994 ft 188 kts 335°
2026-05-06 18:49 51.05714 -0.51681 2987 ft 176 kts 354°
2026-05-06 18:49 51.06909 -0.51256 2998 ft 181 kts 34°
2026-05-06 18:49 51.07762 -0.49810 3014 ft 182 kts 50°
2026-05-06 18:49 51.08523 -0.48222 3004 ft 180 kts 51°
2026-05-06 18:50 51.09280 -0.46644 2996 ft 178 kts 51°
2026-05-06 18:50 51.10038 -0.45061 3002 ft 181 kts 51°
2026-05-06 18:50 51.10791 -0.43469 2976 ft 182 kts 51°
2026-05-06 18:50 51.11485 -0.41796 2805 ft 180 kts 61°
2026-05-06 18:51 51.11926 -0.39925 2665 ft 179 kts 71°
2026-05-06 18:51 51.12123 -0.38695 2528 ft 166 kts 74°
2026-05-06 18:51 51.12358 -0.36945 2319 ft 163 kts 75°
2026-05-06 18:51 51.12600 -0.35191 2092 ft 161 kts 74°
2026-05-06 18:52 51.12826 -0.33538 1897 ft 144 kts 74°
2026-05-06 18:52 51.13026 -0.32075 1705 ft 128 kts 73°
2026-05-06 18:52 51.13213 -0.30723 1537 ft 127 kts 74°
2026-05-06 18:52 51.13399 -0.29362 1353 ft 124 kts 74°
2026-05-06 18:53 51.13584 -0.28015 1187 ft 122 kts 74°
2026-05-06 18:53 51.13768 -0.26680 1009 ft 124 kts 73°
2026-05-06 18:53 51.13948 -0.25362 831 ft 120 kts 75°
2026-05-06 18:53 51.14127 -0.24064 665 ft 121 kts 75°
2026-05-06 18:54 51.14309 -0.22746 478 ft 120 kts 76°
2026-05-06 18:54 51.14481 -0.21476 353 ft 118 kts 77°
2026-05-06 18:54 51.14650 -0.20201 217 ft 115 kts 78°
2026-05-06 18:54 51.14788 -0.19145 214 ft 54 kts 77°
2026-05-06 18:55 51.14820 -0.18938 208 ft 11 kts 75°
2026-05-06 18:55 51.14846 -0.18777 206 ft 18 kts 77°
2026-05-06 18:55 51.14911 -0.18607 210 ft 17 kts 64°
2026-05-06 18:55 51.14970 -0.18437 207 ft 18 kts 51°
2026-05-06 18:56 51.15049 -0.18279 205 ft 4 kts 52°
2026-05-06 18:56 51.15068 -0.18243 203 ft 9 kts 50°
2026-05-06 18:56 51.15131 -0.18188 209 ft 12 kts
2026-05-06 18:56 51.15212 -0.18164 209 ft 11 kts 62°
2026-05-06 18:57 51.15215 -0.18102 208 ft 0 kts 92°
2026-05-06 18:57 51.15217 -0.18067 215 ft 7 kts 82°
2026-05-06 18:57 51.15229 -0.17984 204 ft 9 kts 82°
2026-05-06 18:57 51.15240 -0.17863 206 ft 13 kts 79°
2026-05-06 18:58 51.15258 -0.17711 204 ft 16 kts 78°
2026-05-06 18:58 51.15284 -0.17535 204 ft 17 kts 79°
2026-05-06 18:58 51.15323 -0.17348 213 ft 18 kts 59°
2026-05-06 18:58 51.15380 -0.17348 211 ft 9 kts 321°
2026-05-06 18:59 51.15450 -0.17401 204 ft 13 kts 346°
2026-05-06 18:59 51.15554 -0.17436 208 ft 15 kts 347°
2026-05-06 18:59 51.15670 -0.17473 204 ft 19 kts 347°
2026-05-06 18:59 51.15748 -0.17574 204 ft 13 kts 251°
2026-05-06 19:00 51.15726 -0.17733 204 ft 17 kts 258°
2026-05-06 19:00 51.15725 -0.17738 204 ft 0 kts 258°